Temp
26 23 22 23 24 25 25 25 25 26 26 24 23 22 23 23 23 22 22 22 22 23 23 23 23 22 21 21 21 21 20 20 20 19 19 19 19 19 18 18 18 17 17 17
24 22 24 25 25 26 27 27 25 27 25 24 22 23 24 23 23 23 23 23 23 23 23 23 23 22 22 22 21 21 21 20 20 20 20 19 19 19 19 18 18 18 18 17
22 24 25 26 26 26 25 25 25 26 26 24 23 22 22 23 24 24 24 24 23 24 24 23 23 23 22 22 21 21 21 21 21 21 20 19 19 19 19 18 18 18 17 17
23 25 26 26 27 26 26 26 28 26 26 23 24 21 21 23 23 23 24 24 24 24 24 24 23 23 22 22 22 21 21 21 21 21 20 21 20 19 19 18 18 17 17 17
23 26 25 26 26 27 26 26 26 26 25 23 23 22 21 21 21 23 24 24 24 24 25 24 24 24 23 22 22 22 21 21 21 21 21 21 20 19 19 19 18 17 17 17
24 28 26 26 27 28 28 28 23 20 20 22 23 22 21 22 24 24 25 24 24 24 24 25 24 23 23 23 23 22 22 22 21 22 22 22 21 20 20 19 18 17 17 17
25 26 27 28 27 27 26 23 21 22 21 21 21 22 23 23 26 26 25 25 24 24 24 24 24 23 23 23 23 22 22 22 22 22 22 22 21 20 20 19 18 17 17 17
21 23 25 27 26 25 24 22 20 22 20 23 21 22 25 26 26 27 27 26 25 24 24 24 25 24 24 24 24 24 22 23 22 22 22 22 21 21 21 19 18 18 18 18
19 21 25 26 27 26 25 23 23 22 20 20 20 23 25 25 24 26 26 26 25 25 24 24 25 25 24 24 24 25 24 23 23 23 23 22 21 21 21 20 20 19 18 17
22 23 24 27 27 26 26 24 24 19 22 23 22 25 24 26 23 23 24 25 25 25 24 24 24 25 25 25 25 25 24 23 23 23 23 22 21 21 21 20 19 19 17 16
20 21 24 26 24 25 25 24 21 20 19 21 22 22 21 26 22 23 24 26 26 26 26 25 25 26 26 25 24 25 24 23 23 23 23 22 21 21 21 21 20 19 18 18
21 20 23 23 24 26 25 24 23 24 21 18 20 22 25 24 22 24 25 26 27 28 27 26 26 26 24 25 24 25 24 24 23 22 22 21 21 21 20 20 20 19 19 18
20 19 20 22 24 25 25 23 21 19 18 19 22 22 23 23 23 24 25 26 27 29 27 26 26 25 25 25 24 24 24 24 24 23 22 21 21 20 20 20 19 19 19 18
24 17 23 24 24 24 26 25 22 23 20 20 21 25 26 24 24 23 26 25 28 29 29 28 26 27 27 26 24 23 24 24 24 23 22 21 21 21 20 20 19 19 19 19
23 23 20 25 26 25 26 26 24 24 25 26 24 23 24 23 23 24 28 28 27 28 28 28 28 28 28 26 24 24 24 23 24 23 22 21 21 20 20 19 19 20 19 19
20 22 21 23 23 26 26 26 26 25 22 25 23 23 22 25 24 24 28 29 29 29 30 30 29 28 29 28 27 25 24 24 23 23 23 21 19 18 18 19 19 19 19 19
20 22 19 24 24 24 24 25 25 25 25 25 24 24 21 23 22 24 27 29 29 30 30 29 29 29 29 28 27 26 25 23 22 22 20 21 21 18 18 17 18 19 20 19
19 19 18 25 22 23 26 25 25 23 24 23 23 24 22 23 28 27 26 29 28 29 29 29 29 29 29 28 27 26 24 23 23 21 19 20 19 17 18 18 18 19 20 20
15 17 17 19 21 25 24 23 23 26 24 22 22 23 22 24 25 25 27 28 29 30 30 29 29 29 29 28 27 27 25 23 22 21 19 19 20 18 19 19 19 19 19 19
17 15 18 16 22 23 22 20 19 19 21 21 21 21 21 24 23 19 26 27 28 29 29 29 29 28 28 28 27 26 25 23 22 21 20 21 20 19 19 19 19 18 18 18
16 15 16 16 17 20 17 17 19 21 20 20 21 21 22 19 20 23 25 26 26 27 27 28 28 28 28 28 27 26 24 22 20 19 19 19 18 18 17 17 16 16 15 16
16 17 15 15 17 19 18 18 19 18 19 21 21 22 23 23 24 25 25 25 26 26 27 27 27 26 27 27 27 26 24 22 19 18 17 17 17 16 15 15 16 17 15 13
17 16 15 15 14 15 16 15 18 18 20 20 22 22 22 23 23 23 24 25 25 26 26 26 26 26 26 26 26 25 22 20 18 17 16 17 15 16 16 16 17 18 16 14
15 15 14 15 17 16 17 18 18 19 20 21 22 23 23 22 23 23 24 24 24 24 25 25 26 25 24 23 24 23 20 18 17 16 16 15 16 17 17 18 16 17 16 13
14 15 15 14 15 16 17 18 20 19 21 21 21 21 21 23 24 25 24 23 23 23 23 24 25 23 19 19 18 16 15 15 15 16 15 15 15 15 16 15 17 15 15 13
13 13 14 14 15 16 17 18 20 20 20 20 21 21 20 21 20 20 20 20 21 22 22 22 22 21 18 16 16 15 15 15 16 15 16 16 16 16 15 16 16 15 14 13
Height
1463 1471 1480 1476 1474 1478 1486 1495 1496 1485 1483 1493 1498 1500 1501 1506 1511 1513 1515 1517 1520 1521 1523 1526 1529 1533 1536 1539 1542 1544 1547 1549 1550 1551 1552 1553 1553 1554 1554 1555 1555 1556 1557 1557
1466 1474 1461 1462 1468 1475 1480 1489 1496 1486 1483 1490 1500 1502 1499 1502 1501 1502 1505 1509 1511 1516 1519 1522 1526 1530 1533 1536 1539 1541 1544 1546 1547 1548 1550 1551 1552 1552 1553 1553 1553 1554 1555 1556
1467 1460 1456 1461 1466 1475 1482 1486 1487 1490 1489 1491 1499 1514 1508 1502 1502 1504 1503 1504 1508 1509 1513 1517 1521 1525 1530 1533 1536 1538 1540 1543 1545 1546 1547 1548 1549 1550 1551 1551 1552 1553 1553 1554
1460 1450 1455 1459 1463 1466 1483 1469 1470 1482 1493 1512 1489 1531 1510 1501 1501 1500 1500 1499 1500 1503 1508 1512 1515 1520 1524 1529 1533 1536 1538 1539 1542 1544 1544 1545 1547 1547 1548 1549 1550 1551 1551 1552
1457 1448 1453 1459 1457 1458 1469 1463 1470 1476 1486 1497 1500 1515 1501 1497 1504 1491 1488 1490 1495 1498 1502 1505 1509 1513 1518 1524 1528 1531 1534 1537 1539 1541 1542 1542 1543 1544 1545 1546 1547 1548 1549 1550
1446 1441 1443 1447 1445 1452 1450 1460 1475 1486 1494 1514 1494 1501 1504 1494 1481 1474 1482 1483 1487 1491 1496 1502 1506 1513 1516 1520 1524 1527 1530 1532 1535 1537 1539 1539 1540 1541 1543 1543 1544 1545 1546 1547
1445 1443 1439 1439 1448 1450 1457 1480 1513 1514 1517 1518 1487 1499 1484 1468 1459 1458 1464 1472 1477 1484 1490 1496 1500 1505 1510 1513 1517 1520 1523 1526 1530 1533 1534 1536 1537 1538 1539 1541 1542 1542 1543 1545
1465 1466 1441 1436 1444 1456 1462 1473 1509 1522 1528 1504 1492 1502 1472 1448 1449 1453 1461 1464 1472 1477 1481 1486 1490 1495 1501 1505 1509 1513 1517 1520 1525 1528 1531 1533 1534 1535 1536 1537 1538 1540 1541 1542
1465 1460 1432 1432 1435 1442 1455 1473 1461 1488 1495 1506 1495 1473 1452 1443 1447 1449 1453 1461 1464 1468 1473 1477 1484 1489 1495 1500 1502 1504 1509 1514 1519 1523 1527 1529 1531 1533 1534 1535 1536 1538 1538 1539
1439 1454 1433 1429 1431 1433 1439 1445 1473 1487 1502 1503 1492 1474 1474 1448 1445 1446 1450 1451 1455 1460 1467 1472 1477 1482 1487 1491 1495 1500 1504 1507 1511 1517 1521 1524 1527 1529 1531 1533 1533 1533 1534 1535
1431 1441 1439 1427 1435 1439 1444 1451 1458 1466 1480 1496 1502 1484 1443 1434 1435 1438 1438 1440 1446 1452 1457 1462 1467 1474 1477 1482 1488 1492 1498 1502 1505 1509 1513 1517 1521 1525 1527 1528 1529 1530 1530 1531
1420 1436 1444 1434 1421 1417 1424 1435 1441 1460 1480 1482 1480 1473 1426 1424 1426 1431 1433 1436 1440 1446 1452 1458 1462 1466 1471 1474 1480 1485 1489 1493 1497 1502 1507 1511 1516 1520 1522 1525 1525 1525 1527 1528
1413 1436 1453 1444 1429 1420 1426 1430 1435 1446 1454 1472 1477 1469 1424 1422 1423 1426 1432 1434 1437 1443 1448 1451 1457 1461 1463 1467 1471 1475 1480 1483 1489 1494 1499 1504 1510 1513 1516 1519 1521 1522 1524 1525
1392 1424 1422 1429 1425 1419 1424 1422 1428 1429 1455 1460 1457 1440 1425 1424 1421 1423 1424 1431 1433 1437 1441 1445 1451 1454 1457 1460 1463 1468 1473 1476 1480 1484 1490 1495 1499 1503 1508 1513 1515 1518 1520 1522
1388 1408 1416 1402 1402 1411 1411 1413 1420 1423 1419 1431 1432 1435 1421 1417 1415 1414 1415 1423 1429 1431 1436 1440 1443 1446 1449 1454 1457 1461 1465 1468 1470 1474 1479 1484 1491 1496 1504 1505 1507 1513 1516 1517
1384 1400 1401 1406 1401 1402 1408 1403 1407 1410 1414 1411 1418 1424 1404 1402 1408 1412 1414 1417 1422 1426 1430 1434 1440 1443 1446 1448 1450 1453 1456 1459 1462 1465 1468 1477 1491 1497 1503 1503 1502 1506 1511 1513
1389 1391 1407 1405 1398 1404 1418 1400 1399 1399 1399 1401 1419 1408 1403 1406 1407 1407 1410 1413 1416 1423 1429 1434 1438 1442 1445 1447 1448 1448 1450 1454 1455 1456 1462 1472 1480 1487 1494 1496 1499 1499 1503 1508
1385 1389 1399 1394 1404 1428 1393 1381 1381 1395 1397 1396 1398 1395 1395 1396 1397 1401 1407 1407 1416 1421 1427 1433 1438 1441 1442 1443 1443 1443 1446 1448 1450 1452 1457 1465 1465 1478 1485 1486 1492 1496 1499 1501
1380 1386 1405 1412 1412 1397 1394 1391 1395 1385 1401 1397 1391 1393 1394 1396 1402 1405 1409 1414 1416 1421 1426 1431 1436 1438 1438 1439 1440 1439 1440 1441 1444 1446 1452 1460 1466 1475 1477 1479 1485 1490 1492 1498
1380 1380 1391 1410 1407 1415 1396 1392 1388 1387 1411 1389 1385 1393 1393 1398 1411 1412 1411 1418 1422 1425 1429 1432 1434 1435 1435 1437 1437 1436 1437 1438 1440 1444 1451 1458 1464 1467 1472 1478 1484 1486 1490 1493
1400 1397 1411 1409 1414 1407 1405 1396 1388 1409 1419 1392 1392 1397 1394 1406 1412 1414 1415 1420 1424 1428 1431 1431 1431 1432 1434 1435 1436 1434 1434 1435 1439 1444 1449 1453 1460 1465 1469 1473 1477 1480 1487 1490
1409 1405 1418 1416 1417 1418 1399 1392 1404 1408 1405 1403 1404 1398 1398 1406 1411 1416 1421 1424 1425 1425 1427 1429 1430 1430 1429 1429 1434 1432 1431 1433 1437 1443 1448 1453 1458 1462 1466 1470 1471 1472 1477 1476
1410 1407 1419 1421 1423 1411 1409 1407 1409 1409 1404 1405 1401 1406 1407 1407 1411 1418 1424 1424 1425 1427 1428 1430 1427 1426 1426 1426 1427 1428 1428 1430 1436 1441 1447 1453 1458 1460 1463 1467 1473 1474 1472 1473
1396 1403 1415 1414 1412 1416 1411 1409 1412 1413 1413 1412 1412 1411 1410 1412 1413 1414 1421 1426 1427 1428 1428 1426 1423 1423 1421 1421 1422 1424 1425 1428 1434 1443 1449 1455 1460 1462 1464 1460 1465 1468 1467 1472
1398 1393 1405 1416 1414 1418 1414 1411 1413 1417 1420 1418 1414 1416 1417 1416 1417 1416 1419 1423 1426 1425 1425 1428 1421 1422 1420 1420 1423 1427 1432 1433 1438 1441 1450 1454 1458 1463 1462 1460 1457 1462 1466 1468
1401 1402 1402 1406 1407 1398 1415 1416 1420 1419 1425 1422 1423 1424 1426 1422 1422 1422 1421 1429 1430 1428 1431 1428 1420 1421 1423 1424 1422 1430 1433 1436 1442 1442 1445 1451 1450 1450 1452 1457 1459 1459 1460 1462
Wind_Speed
5 4 7 11 8 7 9 6 15 10 7 5 6 10 20 28 27 26 29 29 31 36 38 35 33 30 28 23 21 22 21 18 18 19 18 17 14 12 13 13 12 14 14 11
2 8 10 8 7 8 7 6 8 2 8 6 4 8 18 23 29 33 32 32 36 38 37 38 36 33 30 25 23 21 20 19 19 18 14 12 10 11 10 11 11 10 7 6
7 6 8 7 6 8 5 6 6 8 7 6 9 3 9 13 16 24 27 34 32 40 41 40 39 36 31 28 25 24 22 21 19 14 13 14 13 11 11 10 10 8 7 7
6 9 8 5 5 7 4 9 8 10 15 8 6 5 9 12 15 13 24 29 36 40 41 42 42 39 33 28 25 24 25 23 21 17 17 14 11 11 11 11 12 11 9 7
8 6 6 5 7 7 10 8 9 9 13 6 5 4 6 11 10 20 25 31 36 40 45 44 45 39 32 28 29 26 27 25 22 21 19 15 13 13 12 12 12 13 10 9
11 6 6 9 5 9 2 4 7 5 4 5 12 7 5 12 26 26 23 30 36 42 48 45 44 40 33 31 30 28 28 27 24 23 20 17 15 12 13 14 15 14 10 9
2 6 3 4 4 3 5 7 3 3 2 6 8 4 9 19 25 25 27 34 38 41 46 49 47 45 38 36 35 34 33 31 30 26 22 18 15 14 14 15 15 15 12 13
6 9 8 3 8 7 7 10 7 7 4 6 6 7 9 16 30 35 30 37 35 41 48 52 50 49 45 40 40 39 37 36 35 31 26 21 16 15 13 15 17 15 13 11
7 8 4 5 6 11 4 4 9 6 1 4 4 6 8 6 12 22 28 28 35 42 48 51 51 50 49 44 44 43 42 40 39 35 30 26 21 18 16 13 13 13 13 11
9 2 6 5 6 6 12 7 2 2 6 5 4 4 5 7 8 11 13 25 36 40 44 46 49 52 53 50 45 44 44 44 42 39 35 30 26 22 15 17 16 14 13 14
8 6 6 6 8 9 3 3 3 5 4 7 4 7 8 7 9 17 20 37 37 40 44 48 51 51 56 55 50 47 48 47 46 43 40 35 31 28 18 17 16 14 13 14
11 7 11 13 5 3 7 10 9 6 6 1 5 7 5 9 9 18 24 29 37 43 44 46 49 50 54 58 55 53 52 51 49 46 43 39 33 31 24 19 16 14 14 14
9 4 5 8 4 1 5 6 6 3 4 8 7 6 2 4 6 19 23 30 38 42 41 46 47 49 52 56 58 57 57 54 52 50 46 42 36 33 29 24 19 16 15 13
19 5 12 15 9 6 5 6 8 8 5 6 7 6 4 7 9 9 24 30 39 41 42 45 45 49 52 54 56 56 57 57 55 53 49 47 44 39 33 26 19 18 16 14
13 13 8 18 16 7 7 7 7 9 11 10 9 11 10 13 13 20 34 32 33 37 39 44 48 48 48 49 50 52 55 57 58 57 53 51 48 41 33 27 20 18 19 17
3 8 9 13 10 14 10 16 12 16 3 5 7 7 8 15 6 9 28 31 33 34 35 35 35 40 42 44 48 48 50 53 56 58 57 53 43 34 33 27 23 21 20 22
4 7 6 17 6 6 5 9 10 7 5 5 6 10 6 4 8 19 30 37 40 34 30 29 30 30 29 30 35 43 46 48 51 54 55 48 44 44 32 30 30 23 23 23
5 6 2 11 6 7 6 3 11 11 3 2 5 4 9 13 35 30 28 46 35 26 21 18 14 11 13 17 24 33 40 44 47 49 50 52 43 42 30 33 31 25 26 24
4 4 3 6 6 3 4 5 5 4 2 5 3 2 5 10 14 4 18 23 27 25 20 16 12 6 9 15 20 24 33 38 41 44 47 44 36 36 26 31 28 29 29 26
1 6 4 2 7 6 2 7 18 11 3 7 6 5 6 12 8 3 14 17 18 16 16 13 5 9 10 14 18 23 30 35 38 40 38 35 30 25 28 30 29 30 29 23
5 5 4 3 4 2 6 17 10 7 5 9 8 13 21 6 7 15 10 11 12 13 10 4 7 9 13 15 19 22 25 30 33 34 35 34 32 29 34 39 32 26 20 30
2 3 3 2 4 3 19 7 6 2 6 17 19 26 31 25 22 19 18 14 10 7 8 11 11 19 19 22 25 23 23 25 27 27 31 31 27 27 24 23 22 12 18 30
3 3 3 2 5 4 10 6 13 10 25 28 34 28 30 30 27 24 21 16 13 11 8 15 18 22 27 31 29 24 24 22 22 24 25 28 22 18 15 11 13 20 15 19
1 8 4 2 1 4 8 15 16 21 25 25 25 24 25 24 20 19 17 19 19 18 20 23 21 30 28 30 26 23 22 20 18 18 22 19 11 7 16 18 26 19 16 21
3 2 8 2 3 4 10 19 21 19 14 15 17 17 16 9 9 9 22 30 26 20 24 25 22 25 17 19 15 15 15 18 19 13 14 7 10 10 15 24 24 17 18 19
3 5 4 4 10 12 6 13 18 22 18 19 19 15 14 18 16 7 3 13 11 8 11 17 15 12 11 15 17 16 16 15 13 14 19 11 24 20 27 20 14 14 19 19
Wind_Direction
191 137 191 196 186 149 141 179 201 208 163 123 191 153 174 180 186 190 194 200 206 209 210 210 210 209 205 212 212 213 215 217 218 219 228 235 240 240 238 239 244 243 249 260
79 214 210 187 149 137 140 179 201 326 159 96 170 174 179 184 194 193 193 199 204 211 210 211 209 209 210 212 213 212 219 223 219 220 230 242 242 234 226 215 232 247 244 252
176 228 151 185 157 143 170 175 186 182 157 43 115 5 206 215 214 209 206 209 207 209 211 210 206 209 212 212 214 213 216 216 217 218 223 230 230 227 215 221 235 243 220 247
223 246 174 182 202 138 200 204 209 152 163 185 174 213 228 212 219 221 216 212 210 211 214 208 205 207 210 214 213 215 211 210 216 222 224 230 238 241 243 242 238 232 226 261
229 212 168 177 201 144 229 152 196 178 184 119 206 105 252 161 222 229 218 214 212 210 208 207 206 206 209 208 207 209 210 213 216 223 222 224 231 243 252 253 223 218 234 268
210 234 174 195 213 176 207 98 39 50 125 194 199 164 235 182 214 225 220 216 207 208 209 212 210 207 207 203 204 208 212 215 215 215 217 225 234 244 247 238 225 218 245 259
350 242 229 170 250 137 98 80 329 338 356 214 194 144 229 210 215 215 207 209 206 206 206 209 209 206 205 203 203 206 209 212 212 214 216 221 232 243 257 245 235 233 249 271
168 237 179 184 186 171 179 160 163 189 204 226 130 202 239 211 221 217 216 210 202 204 210 210 212 209 207 208 205 206 209 213 215 217 217 220 229 236 240 230 232 237 243 238
161 253 283 208 190 158 190 156 197 142 351 101 215 276 329 297 213 204 205 198 204 205 210 212 214 215 211 212 211 210 211 214 217 219 220 222 224 227 228 216 212 217 224 237
213 255 213 234 181 222 197 165 91 353 166 233 249 242 219 224 207 204 190 196 206 206 209 212 216 218 217 219 219 217 217 218 218 220 222 224 225 228 227 221 222 221 226 239
154 155 265 143 195 200 141 181 77 128 147 174 224 256 214 227 194 186 195 202 204 202 213 215 220 222 223 223 219 221 221 221 223 222 223 223 224 226 228 227 224 228 232 236
199 176 233 230 229 193 183 209 182 205 246 198 168 259 232 223 201 188 199 198 205 212 217 220 224 225 223 225 222 223 225 224 226 226 223 222 224 225 228 229 223 219 224 227
169 207 212 320 331 180 181 192 176 132 98 186 158 249 269 200 181 199 185 197 209 214 218 223 223 225 229 230 228 226 227 228 228 227 224 222 222 225 230 230 223 223 226 225
158 140 200 226 220 161 186 191 195 159 153 169 209 201 247 214 181 196 214 200 205 211 217 221 223 229 233 235 232 230 232 233 231 230 225 223 221 231 227 227 226 229 230 226
166 195 178 227 217 193 234 227 198 189 192 181 212 194 211 206 198 203 208 212 204 209 212 219 223 226 232 235 235 236 237 236 235 233 227 225 225 228 225 222 225 232 230 222
253 210 161 228 215 200 222 245 223 225 181 115 131 223 218 210 168 162 196 199 204 205 210 213 220 227 232 239 240 241 241 240 240 236 231 223 224 230 224 223 227 225 228 229
167 181 143 229 175 174 223 222 199 171 152 155 147 219 155 168 192 196 203 202 202 202 207 214 220 229 238 249 252 248 246 243 243 242 230 227 225 222 217 231 232 223 228 232
203 187 144 215 108 203 242 286 159 121 109 52 269 239 183 190 202 207 204 192 194 188 184 186 195 216 244 260 260 258 251 249 248 245 233 226 229 225 223 219 231 231 234 237
202 131 123 148 173 176 356 18 319 132 195 192 188 259 192 166 152 115 193 186 173 173 177 181 175 221 259 266 264 264 256 252 248 247 238 229 239 221 221 219 235 232 238 244
104 88 105 142 138 179 275 344 341 305 29 6 61 48 115 136 157 245 177 178 174 172 169 169 207 242 266 287 279 268 258 251 253 247 239 235 233 237 224 231 242 241 246 253
339 18 62 21 98 151 4 324 308 70 238 11 102 115 104 91 112 79 130 143 149 159 177 217 303 289 292 291 295 280 261 252 247 240 232 227 220 226 225 233 244 254 275 263
11 65 353 38 63 11 355 4 83 239 64 99 88 93 95 92 82 70 66 65 54 40 0 309 283 286 278 292 276 267 259 251 241 234 225 216 219 222 226 232 237 208 323 274
105 104 178 164 186 272 319 58 78 91 88 82 79 74 73 70 61 51 36 27 12 359 329 296 303 300 284 262 258 257 248 239 229 220 215 211 217 226 245 245 267 278 216 246
174 151 126 114 316 276 62 76 78 74 74 72 68 69 69 63 49 31 6 359 3 346 332 317 315 310 300 264 247 246 232 217 210 204 201 205 237 296 283 260 242 240 266 260
212 141 133 90 72 161 65 83 79 68 74 54 51 43 27 8 10 335 323 324 309 308 325 320 320 306 276 237 216 197 178 179 174 176 200 168 244 268 252 228 232 251 262 245
334 184 157 158 191 110 109 94 105 88 72 80 69 69 69 65 57 41 311 277 281 286 282 309 325 306 226 184 163 159 137 138 146 166 165 221 238 226 230 237 249 251 235 252